Regional Weather Roundup
Issued by NWS

Home | Current Version | Previous Version | Graphics & Text | Print | Product List | Glossary On
Versions: 1 2 3 4 5 6 7 8 9 10 11 12 13 14 15 16 17 18 19 20 21 22 23 24 25 26 27 28 29 30 31 32 33 34 35 36 37 38 39 40 41 42 43 44 45 46 47 48 49
702
ASUS45 KTFX 072310
RWRMT
MONTANA REGIONAL WEATHER ROUNDUP
NATIONAL WEATHER SERVICE GREAT FALLS MT
400 PM MST SUN FEB 07 2016

NOTE: "FAIR" INDICATES FEW OR NO CLOUDS BELOW 12000 FEET WITH NO
SIGNIFICANT WEATHER AND/OR OBSTRUCTIONS TO VISIBILITY.

MTZ001>007-043-080000-
WEST OF THE DIVIDE

CITY           SKY/WX    TMP DP  RH WIND       PRES   REMARKS
KALISPELL      CLOUDY    37  25  61 S6        30.57R
MISSOULA       PTSUNNY   38  21  50 CALM      30.58R
BUTTE          SUNNY     34  17  50 NW8       30.48R WCI  27
MULLAN PASS    CLOUDY    29  21  72 CALM      30.51R
ANACONDA         N/A     36  16  44 N3        30.50R
DEER LODGE       N/A     36  18  48 CALM      30.53R
HAMILTON         N/A     45  25  45 CALM      30.55R
LIBBY            N/A     39  23  52 CALM      30.61R
PLAINS           N/A     43  24  47 CALM      30.54S
THOMPSON FALLS   N/A     45  27  49 SW6       30.59R
$$

MTZ008-052>055-080000-
SOUTHWEST MONTANA

CITY           SKY/WX    TMP DP  RH WIND       PRES   REMARKS
BOZEMAN        SUNNY     35  18  49 S8        30.47F WCI  29
DILLON         SUNNY     39  22  50 CALM      30.47R
ENNIS          SUNNY     43   9  24 CALM      30.52F
TWIN BRIDGES     N/A     36  21  54 SE5       30.41F
$$

MTZ009-010-012-014-046-048-049-054-080000-
EAST SLOPES AND CENTRAL MONTANA

CITY           SKY/WX    TMP DP  RH WIND       PRES   REMARKS
CUT BANK       CLOUDY    40  12  32 W17       30.39S
GREAT FALLS    SUNNY     43  11  27 SW10      30.41S
MALMSTROM AFB  MOSUNNY   44   8  23 W9        30.42F
HELENA         CLOUDY    42  17  36 W13       30.46S
CHOTEAU          N/A     45   5  19 W5        30.41S
CONRAD           N/A     42  12  29 W1        30.39S
$$

MTZ011-013-016-021-045-047-050-051-080000-
NORTH CENTRAL MONTANA

CITY           SKY/WX    TMP DP  RH WIND       PRES   REMARKS
HAVRE          SUNNY     41  11  29 NW12      30.44S
LEWISTOWN      SUNNY     35  13  40 NW7       30.41S WCI  29
N BAR RANCH      N/A     32   9  37 NW15G23   30.41R WCI  22
CHINOOK          N/A     39  10  30 W14G22    30.44R WCI  31
$$

MTZ017>020-022>027-061-062-080000-
NORTHEAST MONTANA

CITY           SKY/WX    TMP DP  RH WIND       PRES   REMARKS
GLASGOW        SUNNY     36  20  52 NW24G31   30.34R WCI  24
JORDAN           N/A     37  16  42 NW25      30.38R WCI  25
SIDNEY         PTCLDY    37  16  41 NW24G38   30.26R WCI  26
WOLF POINT     CLOUDY    39  20  46 NW29G38   30.32R WCI  27
PLENTYWOOD       N/A     34  19  55 NW30G38   30.20R WCI  20
POPLAR           N/A     37  18  44 NW31G38   30.28R WCI  25
SCOBEY           N/A     34  12  40 NW22      30.24R WCI  22
$$

MTZ028>42-056>058-080000-
SOUTHCENTRAL AND SOUTHEAST MONTANA

CITY           SKY/WX    TMP DP  RH WIND       PRES   REMARKS
BAKER          PTCLDY    35  11  36 NW31G48   30.26R WCI  22
BILLINGS       MOSUNNY   41   9  26 N15       30.41R
LIVINGSTON     SUNNY     43   7  22 W26G33    30.41S
MILES CITY     MOSUNNY   39  12  33 NW26G39   30.35R WCI  28
EKALAKA          N/A     32   5  32 NW25      30.22  WCI  19
FORSYTH          N/A     39  10  30 NW16G28   30.40R WCI  30
LAUREL           N/A     42   8  24 NW10      30.36R
ROUNDUP          N/A     39   5  24 NW14      30.29S WCI  31
$$

REGIONAL REPORTS...DAKOTAS

CITY           SKY/WX    TMP DP  RH WIND       PRES   REMARKS
WILLISTON      CLEAR     35  20  54 NW31      30.21R WCI  22
MINOT          CLOUDY    33  17  51 NW32G51   30.07R WCI  19
DICKINSON      CLOUDY    33  13  43 NW33G44   30.13R WCI  18
BEACH          CLOUDY    34  14  44 NW36G47   30.26R WCI  19
CROSBY         MOCLDY    32  19  59 NW31G44   30.18R WCI  17
TIOGA          FLURRIES  32  21  64 NW29G40   30.18R WCI  18
BISMARCK       PTCLDY    38  16  40 NW31G56   30.05R WCI  25
GRAND FORKS    SNOW      17  10  74 N25G38    29.92R VSB 1/4 WCI  -1
FARGO          FLURRIES  20  14  77 N30G38    29.89R WCI   1
BUFFALO SD       N/A     37  11  34 NW43G54   30.13R WCI  22
RAPID CITY     SUNNY     38   6  26 NW38G49   30.18R WCI  24
$$

REGIONAL REPORTS...WYOMING/IDAHO/WASHINGTON

CITY           SKY/WX    TMP DP  RH WIND       PRES   REMARKS
GILLETTE       CLOUDY    31  11  43 NW24G32   30.34R WCI  17
SHERIDAN       CLOUDY    35  14  42 N22       30.40R WCI  23
BUFFALO WY     CLOUDY    31  13  47 N24G37    30.34S WCI  17
CODY           SUNNY     37  14  38 NE12      30.39R WCI  30
YELLOWSTONE LA   N/A     29   9  43 VRB6      30.47R WCI  23
IDAHO FALLS    CLOUDY    24  21  88 N7        30.60R WCI  16
SALMON         CLOUDY    28  18  64 CALM      30.59S
BOISE          SUNNY     47  36  65 NW8       30.59S
SPOKANE        PTSUNNY   40  31  70 NE6       30.59S
$$

REGIONAL REPORTS...ALBERTA

CITY           SKY/WX    TMP DP  RH WIND       PRES   REMARKS
EDMONTON       CLEAR     36  18  48 W6        30.34S WCI  31
CALGARY        MOSUNNY   39  10  30 S6        30.34F
LETHBRIDGE     PTSUNNY   43  12  28 W18       30.39F
MEDICINE HAT   MOSUNNY   41  10  28 NW10      30.42S
WATERTON GATE    N/A     37  12  35 SW21G30     N/A  WCI  27
MILK RIVER       N/A     41  10  28 NW5         N/A
ONEFOUR          N/A     37  10  32 NW8         N/A  WCI  31
$$

REGIONAL REPORTS...SASKATCHEWAN

CITY           SKY/WX    TMP DP  RH WIND       PRES   REMARKS
SWIFT CURRENT  CLEAR     32  18  55 NW26G32   30.30R WCI  18
REGINA         PTCLDY    30  19  64 NW25G35   30.22R WCI  16
SASKATOON      PTCLDY    28  19  69 NW18      30.28R WCI  16
VAL MARIE        N/A     36  10  35 NW22G29     N/A  WCI  24
ROCKGLEN         N/A     32  16  51 NW23G32     N/A  WCI  19
ASSINIBOIA       N/A     32  19  59 W6          N/A  WCI  26
$$




USA.gov is the U.S. government's official web portal to all federal, state and local government web resources and services.